Location: Horowhenua
(40.7500°S, 175.3333°E)
Time: 15:54:33
(UTC+00:00)

SL-24 DEB - Pass Details

Date: 25 September 2023
Orbit: 654 x 688 km, 92.0° (Epoch: 01 December)

Event Time Altitude Azimuth Distance (km) Brightness Sun altitude
Rises 15:36:48 0° 172° (S) 3,022 8.1 -27.4°
Reaches altitude 10° 15:39:04 10° 169° (S) 2,104 7.2 -27.0°
Maximum altitude 15:43:40 65° 87° (E) 737 4.5 -26.2°
Enters shadow 15:44:18 58° 44° (NE) 784 4.5 -26.1°
